7 * 24
多渠道服务支持
ONEWEB-0402是英国OneWeb公司“一网”低轨宽带卫星星座的组网卫星,于2021年12月27日发射入轨。作为OneWeb一期全球星座部署的组成部分,它运行在约1200km高度的低地球轨道,单星重约147.5kg,配备Ku/Ka波段通信载荷,依托氙气电推进系统,可提供宽带互联网接入服务,助力OneWeb实现全球覆盖,尤其为偏远地区搭建 connectivity 基础设施,是OneWeb低轨通信星座组网的重要节点。
英国
(GB)
| 数据来源 | 国际轨道数据 |
| 星历时间: | 2026-09-15T22:43:46+0800 8小时前 查看轨道信息 |
| 半长轴: | 7567.877km |
| 偏心率: | 0.0002375 |
| 轨道倾角: | 87.917° |
| 近地点辐角 | 92.009° |
| 升交点赤经 | 317.468° |
| 平近点角 | 268.132° |
| 近地点: | 1187.942km |
| 远地点: | 1191.538km |
| 周期: | 109.200分钟 |
| 每日圈数: | 13.186869 |